Weather History for KADW - April, 2013

Change the Weather History Date:

Monday, April 22, 2013

  Actual Average Record
Temperature  
Mean Temperature 44 °F -  
Max Temperature 54 °F 65 °F 87 °F (2004)
Min Temperature 34 °F 44 °F 34 °F (2013)
Degree Days  
Heating Degree Days 22    
Moisture  
Dew Point 34 °F    
Average Humidity 67    
Maximum Humidity 82    
Minimum Humidity 52    
Precipitation  
Precipitation 0.00 in - - ()
Sea Level Pressure  
Sea Level Pressure 30.51 in    
Wind  
Wind Speed 8 mph (NE)    
Max Wind Speed 15 mph    
Max Gust Speed 21 mph    
Visibility 10 miles    
Events      
Averages and records for this station are not official NWS values.
T = Trace of Precipitation, MM = Missing Value Source: NWS Daily Summary

Daily Weather History Graph

Daily Weather History Graph

Search for Another Location

Airport or City:

Trip Planner

Search our weather history database for the weather conditions in past years. The results will help you decide how hot, cold, wet, or windy it might be!

Date:

Astronomy

Apr. 22, 2013 Rise Set
Actual Time 6:21 AM EDT 7:51 PM EDT
Civil Twilight 5:53 AM EDT 8:19 PM EDT
Nautical Twilight 5:19 AM EDT 8:53 PM EDT
Astronomical Twilight 4:43 AM EDT 9:29 PM EDT
Moon 4:39 PM EDT (4/22) 4:12 AM EDT (4/22)
Length of Visible Light 14h 26m
Length of Day
13h 30m
Waxing Gibbous, 87% of the Moon is Illuminated
Apr 22
Waxing Gibbous
Apr 25
Full
May 2
Last Quarter
May 9
New
May 18
First Quarter

Hourly Weather History & Observations

Time (EDT) Temp. Windchill Dew Point Humidity Pressure Visibility Wind Dir Wind Speed Gust Speed Precip Events Conditions
12:55 AM 39.2 °F 34.2 °F 32.9 °F 78% 30.58 in 10.0 mi East 6.9 mph - N/A   Clear
1:55 AM 38.8 °F 36.5 °F 32.4 °F 78% 30.57 in 10.0 mi East 3.5 mph - N/A   Clear
2:55 AM 38.3 °F 35.9 °F 31.8 °F 77% 30.57 in 10.0 mi NE 3.5 mph - N/A   Clear
3:55 AM 34.7 °F 30.6 °F 29.8 °F 82% 30.56 in 10.0 mi NNE 4.6 mph - N/A   Clear
4:55 AM 35.4 °F 32.6 °F 29.8 °F 80% 30.55 in 10.0 mi NNE 3.5 mph - N/A   Clear
5:55 AM 34.3 °F 30.2 °F 28.9 °F 81% 30.55 in 10.0 mi NNE 4.6 mph - N/A   Clear
6:49 AM 35.6 °F 30.7 °F 30.2 °F 81% 30.55 in 10.0 mi NNE 5.8 mph - N/A   Mostly Cloudy
6:55 AM 36.0 °F 31.1 °F 30.9 °F 82% 30.55 in 10.0 mi NE 5.8 mph - N/A   Mostly Cloudy
7:30 AM 39.2 °F 33.6 °F 33.8 °F 81% 30.56 in 10.0 mi NNE 8.1 mph - N/A   Mostly Cloudy
7:49 AM 41.0 °F 35.2 °F 35.6 °F 81% 30.56 in 10.0 mi NE 9.2 mph - N/A   Mostly Cloudy
7:55 AM 41.7 °F 36.7 °F 35.2 °F 78% 30.56 in 10.0 mi NE 8.1 mph - N/A   Mostly Cloudy
8:38 AM 44.6 °F 39.7 °F 35.6 °F 71% 30.56 in 10.0 mi NNE 9.2 mph - N/A   Mostly Cloudy
8:55 AM 44.4 °F 38.6 °F 36.9 °F 75% 30.56 in 10.0 mi NE 11.5 mph - N/A   Mostly Cloudy
9:55 AM 46.6 °F - 37.2 °F 70% 30.56 in 10.0 mi NNE 8.1 mph - N/A   Overcast
10:26 AM 46.4 °F 41.1 °F 35.6 °F 66% 30.55 in 10.0 mi NE 11.5 mph - N/A   Overcast
10:55 AM 47.7 °F - 34.2 °F 60% 30.56 in 10.0 mi ENE 12.7 mph - N/A   Overcast
11:55 AM 49.6 °F - 34.3 °F 56% 30.54 in 10.0 mi East 10.4 mph 17.3 mph N/A   Overcast
12:55 PM 51.1 °F - 34.9 °F 54% 30.52 in 10.0 mi ENE 12.7 mph - N/A   Overcast
1:55 PM 51.6 °F - 35.4 °F 54% 30.50 in 10.0 mi ENE 15.0 mph - N/A   Overcast
2:55 PM 52.3 °F - 35.6 °F 53% 30.47 in 10.0 mi ENE 11.5 mph 20.7 mph N/A   Overcast
3:55 PM 53.4 °F - 36.3 °F 52% 30.45 in 10.0 mi ENE 12.7 mph - N/A   Mostly Cloudy
4:37 PM 53.6 °F - 37.4 °F 54% 30.43 in 10.0 mi NE 13.8 mph 19.6 mph N/A   Overcast
4:55 PM 53.8 °F - 37.4 °F 54% 30.43 in 10.0 mi ENE 10.4 mph - N/A   Mostly Cloudy
5:55 PM 53.1 °F - 36.1 °F 53% 30.42 in 10.0 mi ENE 15.0 mph - N/A   Mostly Cloudy
6:55 PM 51.4 °F - 34.9 °F 53% 30.42 in 10.0 mi East 12.7 mph - N/A   Overcast
7:55 PM 50.2 °F - 35.4 °F 57% 30.42 in 10.0 mi East 10.4 mph - N/A   Overcast
8:55 PM 49.5 °F - 35.1 °F 58% 30.43 in 10.0 mi East 11.5 mph - N/A   Overcast
9:55 PM 48.6 °F - 34.7 °F 59% 30.43 in 10.0 mi ENE 12.7 mph - N/A   Mostly Cloudy
10:55 PM 48.4 °F - 35.6 °F 61% 30.42 in 10.0 mi ENE 10.4 mph - N/A   Overcast
11:23 PM 48.2 °F - 35.6 °F 62% 30.42 in 10.0 mi ENE 9.2 mph - N/A   Overcast
11:55 PM 47.7 °F - 36.9 °F 66% 30.41 in 10.0 mi ENE 9.2 mph - N/A   Overcast